This demonstration page uses our WeatherBlox Daily Observations layout. Learn more.

Hourly Observations for October 19, 2020

Temp ( °F °C ) Dew Point ( °F °C ) Humidity (%) Winds ( mph kmh ) Pressure ( in mb ) Visibility ( mi km ) Precip ( " mm )
12:53 am 00:53 Mostly Clear 33 0.6 31 -0.6 92 92 ESE 12 19 30.04 1017 10 16.0934 0 0
1:53 am 01:53 Clear 33 0.6 31 -0.6 92 92 ESE 7 11 30.04 1017 10 16.0934 0 0
4:53 am 04:53 undefined 32 0 30 -1.1 92 92 E 7 11 30.04 1017 10 16.0934 0 0
5:53 am 05:53 Cloudy 32 0 30 -1.1 92 92 E 8 13 30.05 1018 10 16.0934 0 0
6:53 am 06:53 Mostly Cloudy 32 0 30 -1.1 92 92 E 6 9 30.06 1018 10 16.0934 0 0
7:53 am 07:53 Mostly Cloudy 32 0 29 -1.7 88 88 SE 6 9 30.08 1019 10 16.0934 0 0
8:53 am 08:53 Mostly Cloudy 33 0.6 30 -1.1 89 89 SE 9 15 30.09 1019 10 16.0934 0 0
9:53 am 09:53 Sunny 36 2.2 31 -0.6 82 82 E 6 9 30.09 1019 10 16.0934 0 0
10:53 am 10:53 Sunny 40 4.4 33 0.6 77 77 ESE 5 7 30.09 1019 10 16.0934 0 0
11:53 am 11:53 Sunny 43 6.1 34 1.1 71 71 VRB 3 6 30.07 1018 10 16.0934 0 0
12:53 pm 12:53 Sunny 48 8.9 35 1.7 61 61 VRB 5 7 30.02 1017 10 16.0934 0 0
1:53 pm 13:53 Sunny 52 11.1 36 2.2 55 55 SE 7 11 29.97 1015 10 16.0934 0 0
2:53 pm 14:53 Sunny 57 13.9 37 2.8 47 47 E 10 17 29.93 1014 10 16.0934 0 0
3:53 pm 15:53 Sunny 57 13.9 36 2.2 45 45 ESE 16 26 29.93 1014 10 16.0934 0 0
4:53 pm 16:53 Mostly Sunny 57 13.9 37 2.8 47 47 E 18 30 29.93 1014 10 16.0934 0 0
5:53 pm 17:53 Sunny 52 11.1 38 3.3 59 59 ESE 13 20 29.95 1014 10 16.0934 0 0
6:53 pm 18:53 Mostly Cloudy 49 9.4 37 2.8 64 64 ESE 13 20 29.96 1014 10 16.0934 0 0
7:53 pm 19:53 Cloudy 51 10.6 37 2.8 59 59 E 17 28 29.95 1014 10 16.0934 0 0
8:53 pm 20:53 Cloudy 49 9.4 36 2.2 61 61 ESE 15 24 29.95 1014 10 16.0934 0 0
9:53 pm 21:53 Cloudy 47 8.3 37 2.8 69 69 ESE 17 28 29.93 1014 10 16.0934 0 0
10:53 pm 22:53 Mostly Cloudy 45 7.2 36 2.2 71 71 ESE 15 24 29.93 1013 10 16.0934 0 0
11:53 pm 23:53 Clear 42 5.6 35 1.7 76 76 ESE 14 22 29.91 1013 10 16.0934 0 0

Powered by AerisWeather